Weather History for Lynchburg, VA

Change the Weather History Date:

Wednesday, July 24, 2013

  Actual Average Record
Temperature  
Mean Temperature 79 °F 75 °F  
Max Temperature 89 °F 86 °F 100 °F (2010)
Min Temperature 68 °F 64 °F 54 °F (1977)
Degree Days  
Heating Degree Days 0 0  
Month to date heating degree days 0 0  
Since 1 June heating degree days 1 14  
Since 1 July heating degree days 0 0  
Cooling Degree Days 14 10  
Month to date cooling degree days 328 240  
Year to date cooling degree days 718 536  
Since 1 June cooling degree days 583 454  
Growing Degree Days 28 (Base 50)    
Moisture  
Dew Point 67 °F    
Average Humidity 67    
Maximum Humidity 90    
Minimum Humidity 43    
Precipitation  
Precipitation T in 0.14 in 4.03 in (1916)
Month to date precipitation 3.35 3.33  
Year to date precipitation 30.11 23.64  
Snow  
Snow 0.00 in - - ()
Month to date snowfall 0.0  
Since 1 June snowfall 0.0  
Since 1 July snowfall 0.0  
Snow Depth 0.00 in    
Sea Level Pressure  
Sea Level Pressure 29.81 in    
Wind  
Wind Speed 5 mph (North)    
Max Wind Speed 16 mph    
Max Gust Speed 20 mph    
Visibility 10 miles    
Events Rain    
T = Trace of Precipitation, MM = Missing Value Source: NWS Daily Summary

Daily Weather History Graph

Daily Weather History Graph

Search for Another Location

Airport:

Trip Planner

Search our weather history database for the weather conditions in past years. The results will help you decide how hot, cold, wet, or windy it might be!

Date:

Astronomy

Jul. 24, 2013 Rise Set
Actual Time 6:15 AM EDT 8:31 PM EDT
Civil Twilight 5:45 AM EDT 9:00 PM EDT
Nautical Twilight 5:09 AM EDT 9:36 PM EDT
Astronomical Twilight 4:29 AM EDT 10:16 PM EDT
Moon 9:41 PM EDT (7/24) 8:28 AM EDT (7/24)
Length of Visible Light 15h 15m
Length of Day
14h 16m
Waning Gibbous, 95% of the Moon is Illuminated
Jul 24
Waning Gibbous
Jul 29
Last Quarter
Aug 6
New
Aug 14
First Quarter
Aug 20
Full

Hourly Weather History & Observations

Time (EDT) Temp. Heat Index Dew Point Humidity Pressure Visibility Wind Dir Wind Speed Gust Speed Precip Events Conditions
12:54 AM 72.0 °F - 66.9 °F 84% 29.78 in 10.0 mi Calm Calm - N/A   Clear
1:54 AM 75.0 °F - 66.0 °F 73% 29.77 in 10.0 mi Calm Calm - N/A   Clear
2:54 AM 72.0 °F - 66.9 °F 84% 29.75 in 10.0 mi WSW 4.6 mph - N/A   Clear
3:54 AM 71.1 °F - 66.9 °F 87% 29.73 in 10.0 mi South 5.8 mph - N/A   Clear
4:54 AM 70.0 °F - 66.9 °F 90% 29.73 in 10.0 mi WSW 4.6 mph - N/A   Clear
5:54 AM 69.1 °F - 66.9 °F 93% 29.74 in 10.0 mi Calm Calm - N/A   Clear
6:54 AM 69.1 °F - 66.9 °F 93% 29.75 in 10.0 mi South 3.5 mph - N/A   Clear
7:54 AM 75.0 °F - 69.1 °F 82% 29.76 in 10.0 mi SSW 4.6 mph - N/A   Clear
8:54 AM 77.0 °F - 69.1 °F 76% 29.80 in 10.0 mi SW 3.5 mph - N/A   Clear
9:54 AM 82.0 °F 85.9 °F 70.0 °F 67% 29.81 in 10.0 mi Variable 4.6 mph - N/A   Clear
10:54 AM 82.9 °F 86.5 °F 69.1 °F 63% 29.81 in 10.0 mi WNW 5.8 mph - 0.00 in Rain Light Rain
11:54 AM 84.9 °F 88.2 °F 68.0 °F 57% 29.81 in 10.0 mi NNE 4.6 mph - 0.00 in   Clear
12:54 PM 86.0 °F 88.8 °F 66.9 °F 53% 29.81 in 10.0 mi NW 4.6 mph - N/A   Clear
1:54 PM 86.0 °F 88.8 °F 66.9 °F 53% 29.80 in 10.0 mi Calm Calm - N/A   Scattered Clouds
2:54 PM 87.1 °F 87.8 °F 63.0 °F 44% 29.79 in 10.0 mi WSW 4.6 mph - N/A   Clear
3:54 PM 88.0 °F 89.6 °F 64.9 °F 46% 29.78 in 10.0 mi Variable 3.5 mph - N/A   Clear
4:54 PM 88.0 °F 90.3 °F 66.0 °F 48% 29.78 in 10.0 mi Calm Calm - N/A   Scattered Clouds
5:54 PM 80.1 °F 82.7 °F 68.0 °F 67% 29.80 in 10.0 mi East 6.9 mph - N/A   Overcast
6:54 PM 79.0 °F - 69.1 °F 72% 29.80 in 10.0 mi Variable 3.5 mph - N/A   Partly Cloudy
7:54 PM 77.0 °F - 66.0 °F 69% 29.82 in 10.0 mi NNE 8.1 mph - N/A   Mostly Cloudy
8:54 PM 75.0 °F - 68.0 °F 79% 29.86 in 10.0 mi NNE 15.0 mph - N/A   Mostly Cloudy
9:30 PM 71.6 °F - 66.2 °F 83% 29.91 in 10.0 mi NNE 10.4 mph - N/A   Overcast
9:52 PM 71.6 °F - 66.2 °F 83% 29.92 in 10.0 mi NE 12.7 mph - N/A   Overcast
9:54 PM 71.1 °F - 66.9 °F 87% 29.89 in 10.0 mi NNE 11.5 mph - N/A   Overcast
10:25 PM 71.6 °F - 66.2 °F 83% 29.93 in 10.0 mi NNE 8.1 mph - N/A   Mostly Cloudy
10:54 PM 71.1 °F - 66.9 °F 87% 29.91 in 10.0 mi NNE 12.7 mph - N/A   Partly Cloudy
11:54 PM 70.0 °F - 64.9 °F 84% 29.92 in 10.0 mi NNE 8.1 mph - N/A   Partly Cloudy